Theta_e
324 324 325 325 324 322 321 321 321 321 319 317 317 317 315 315 316 316 315 315 315 315 314 313 314 314 315 316 316 316 316 315 314 313 314 314 314 315 314 314 314 314 312 312 312 311 311 311 310 309 308 309 309 308 308 308 307 306 306 307 307 309 310 310 310 309 305 303 303 302 300 300 300 299 299 299 298 299 299 299 299 299 299 299 300
324 323 323 323 322 322 321 321 321 320 319 317 318 318 317 316 316 317 317 316 316 316 316 316 315 315 315 315 316 316 316 317 316 315 315 315 315 315 314 314 314 314 314 314 313 311 310 310 310 309 308 308 308 308 308 308 308 307 307 306 306 306 307 307 307 307 306 303 303 302 300 301 301 300 299 299 299 300 300 300 299 299 298 299 299
323 323 322 322 321 321 320 320 320 319 318 318 319 319 318 317 316 317 317 317 317 317 317 317 317 317 316 316 316 317 316 317 317 317 317 317 316 316 315 314 314 314 314 315 315 313 311 311 310 310 309 308 307 307 308 308 308 308 306 305 304 305 306 307 308 308 307 305 303 304 302 301 301 300 300 301 301 301 301 301 301 300 300 299 299
323 322 322 323 321 321 320 320 319 319 318 318 319 319 319 318 317 317 317 318 318 318 318 319 318 318 317 317 317 318 318 317 317 317 317 317 317 317 316 316 316 315 315 315 314 314 313 313 312 311 311 310 308 307 307 307 308 308 306 304 304 305 307 308 309 308 308 306 304 303 303 302 301 301 301 302 302 302 302 302 302 302 301 301 300
322 322 322 323 322 322 321 320 319 319 319 319 319 319 319 318 318 318 318 319 320 320 319 319 318 318 317 316 317 318 318 318 318 317 318 318 317 317 317 317 317 316 316 316 315 314 314 314 314 312 311 311 311 309 308 307 307 307 306 304 304 306 308 309 308 309 309 309 306 303 302 303 302 301 301 302 303 303 303 302 302 301 301 301 300
322 322 322 322 322 322 321 320 320 319 319 321 320 320 319 319 318 318 318 319 319 319 319 318 318 318 316 315 316 318 318 318 318 318 318 318 317 317 317 317 317 316 317 317 316 315 314 314 314 314 313 312 312 311 310 308 307 307 307 305 304 306 308 308 308 309 310 309 307 305 303 304 304 303 302 302 302 303 303 303 303 302 301 300 300
322 322 322 322 323 322 322 321 320 318 320 321 320 319 319 319 318 319 319 319 319 318 318 318 318 317 316 316 317 318 318 318 318 318 318 318 318 317 317 317 316 316 317 318 318 316 315 314 314 314 314 313 313 313 312 309 308 307 307 306 304 304 306 307 307 309 310 308 308 307 305 304 304 303 302 301 302 302 302 302 303 303 301 301 300
321 322 322 322 322 322 322 321 320 320 320 320 319 319 319 319 319 319 319 319 319 319 318 318 318 318 317 317 317 318 318 319 318 318 318 319 319 319 318 318 318 317 318 318 318 318 317 316 315 315 315 314 313 313 313 311 309 308 307 306 305 303 304 305 306 308 309 309 308 307 306 305 304 303 303 303 304 303 301 301 302 303 302 301 301
321 322 322 322 322 321 320 320 320 320 320 319 319 319 319 320 320 319 319 319 318 317 317 318 318 318 318 318 318 318 318 318 318 318 319 320 320 320 320 319 319 319 319 319 318 318 317 317 317 317 317 317 315 314 313 312 311 309 308 307 305 304 304 305 306 308 309 310 309 307 307 306 305 304 304 303 303 302 301 300 301 302 301 301 302
321 321 321 321 321 321 320 320 319 320 319 319 319 319 319 319 319 318 318 318 317 317 317 318 318 318 318 318 318 318 319 319 320 319 320 320 320 320 320 320 320 320 319 319 319 318 317 317 318 318 318 318 316 315 314 314 312 310 309 308 307 305 304 305 306 308 309 309 309 307 307 307 305 304 303 303 301 301 301 301 301 301 301 301 302
321 321 321 321 321 320 320 320 319 320 319 319 319 319 319 319 319 318 318 317 317 318 319 319 319 319 319 319 319 319 319 318 318 317 318 318 318 319 319 319 320 320 320 320 320 318 318 318 318 318 318 317 316 315 315 315 314 312 309 309 308 306 305 305 305 306 306 307 306 305 305 306 304 303 303 302 301 301 300 300 300 300 300 300 301
320 320 320 321 320 319 320 319 319 319 319 318 318 319 319 319 318 318 318 318 319 319 320 320 320 319 319 318 317 316 315 313 312 312 312 313 315 316 318 319 319 319 319 319 319 319 319 318 318 318 318 317 316 315 315 315 314 313 311 309 307 305 304 304 304 304 305 305 305 303 303 304 304 303 302 301 301 300 300 300 300 300 299 299 299
313 315 317 318 318 318 319 318 317 316 316 317 317 317 318 318 318 318 318 318 318 317 317 316 316 314 313 312 311 310 310 309 309 309 309 309 310 311 313 315 318 319 319 319 319 319 318 318 318 317 317 316 315 314 314 314 313 312 310 307 305 303 303 304 304 304 304 304 304 303 303 303 303 302 301 299 299 299 300 299 299 298 298 298 298
307 308 310 312 313 314 314 314 314 314 314 314 315 315 315 315 314 314 313 313 313 312 311 310 310 309 309 309 308 308 308 308 307 308 308 307 308 308 309 311 314 316 318 318 318 318 318 318 318 316 316 315 315 314 312 312 312 310 307 304 302 303 303 304 303 303 303 303 303 302 301 301 300 300 299 298 298 298 298 298 297 297 296 296 295
306 306 306 307 308 309 309 310 310 311 311 311 310 310 310 309 310 310 310 310 309 309 308 308 308 308 308 307 306 306 306 307 307 307 307 307 307 307 308 309 310 313 316 317 318 318 318 317 317 315 314 314 314 313 311 310 310 307 303 302 302 302 303 303 302 302 302 302 301 301 300 299 299 298 298 297 296 295 295 294 294 294 295 295 295
306 306 306 307 307 307 308 308 308 308 308 308 308 308 308 308 308 308 309 309 308 308 308 308 307 307 307 306 306 306 307 307 308 307 307 307 306 307 308 309 310 312 315 316 317 316 316 315 314 313 313 312 312 311 309 308 307 304 302 302 302 302 302 302 302 302 302 301 300 299 298 297 297 296 295 294 294 294 294 294 294 295 295 295 295
306 306 306 306 307 307 307 307 307 307 307 307 308 307 307 308 308 308 309 308 309 308 308 307 307 307 307 307 307 307 307 308 308 308 307 306 306 306 307 309 310 313 314 314 314 313 312 312 311 311 310 309 309 308 306 305 304 303 302 302 302 302 302 302 301 301 300 300 299 297 296 295 295 294 293 293 292 293 293 295 295 295 295 295 296
305 305 305 306 306 306 306 305 306 307 307 307 307 307 307 308 308 308 308 308 308 308 308 308 308 308 308 308 308 307 308 308 308 308 308 307 306 305 306 308 311 312 312 311 311 310 310 310 309 309 308 307 306 305 303 303 303 303 302 302 302 302 301 300 300 299 298 297 296 295 294 294 293 293 292 292 292 291 292 294 294 294 294 295 295
305 305 305 305 305 306 306 305 306 306 307 307 306 306 306 306 306 307 307 307 307 307 308 307 307 307 307 307 307 308 308 308 308 308 307 307 306 305 305 307 310 311 310 309 308 308 308 307 307 306 306 305 305 303 302 302 302 302 302 302 301 299 298 297 296 295 295 294 294 293 293 293 293 292 292 292 291 291 291 293 293 293 293 294 294
303 303 304 304 305 305 305 305 306 306 306 306 305 305 305 305 306 306 306 306 306 306 305 305 305 305 305 305 306 307 308 308 308 307 307 307 307 306 305 307 309 310 308 307 307 306 305 305 304 303 303 303 303 302 302 301 301 301 300 299 298 296 295 294 294 293 293 293 293 293 293 293 292 292 292 292 292 291 291 292 292 292 292 293 293
300 300 301 302 304 305 305 305 305 306 305 305 305 305 305 305 305 305 305 305 305 304 304 304 304 304 305 306 307 308 308 308 307 307 307 307 307 306 306 306 308 308 307 306 304 303 302 301 301 301 301 301 301 301 301 300 300 299 298 296 295 294 294 293 293 293 293 293 293 293 293 293 293 293 292 292 292 292 292 292 292 292 292 292 292
299 300 300 300 302 303 304 305 305 305 305 305 305 305 305 304 304 304 304 304 304 304 304 304 305 305 305 306 306 306 307 306 306 306 306 307 307 307 306 306 306 307 307 305 303 301 300 299 299 299 299 299 299 299 299 298 298 297 296 295 294 294 293 293 292 292 293 293 293 293 293 293 293 293 292 292 292 292 291 291 291 291 291 291 291
299 300 300 300 300 301 302 304 304 305 305 304 305 305 304 304 304 304 304 304 304 304 304 304 305 305 305 305 305 305 305 305 305 305 306 306 307 307 306 306 306 306 306 304 302 301 300 298 298 297 298 298 298 297 297 296 295 294 294 293 293 292 292 292 292 292 292 292 292 293 293 293 292 292 292 292 291 291 291 290 290 290 290 290 290
298 299 300 300 300 300 301 302 303 304 304 304 304 304 304 304 304 304 304 304 304 304 304 304 305 305 305 305 304 304 304 304 304 304 305 305 306 306 306 306 305 305 304 303 301 300 298 298 297 296 296 296 295 295 294 294 293 292 292 292 291 291 291 291 291 292 292 292 292 292 292 292 292 291 291 291 290 290 289 289 289 289 289 289 289
298 298 299 300 301 301 301 301 302 303 304 304 304 304 304 304 304 304 304 303 304 304 304 304 304 305 305 305 304 303 303 303 303 303 303 304 305 305 305 305 304 303 302 301 300 298 297 297 296 295 295 294 294 293 293 292 292 291 291 290 290 290 290 291 291 291 291 291 291 291 291 291 291 290 290 289 289 289 289 289 289 288 288 288 288
298 297 298 299 300 301 301 301 302 303 303 303 303 303 304 304 304 304 304 303 304 305 304 304 304 305 305 304 303 303 303 302 302 302 302 303 303 303 302 302 301 300 300 299 298 297 296 295 294 294 293 293 292 292 292 291 291 290 290 290 290 290 290 290 290 290 291 291 290 290 290 290 289 288 288 288 288 288 288 288 288 288 288 288 288
297 297 298 298 299 299 300 301 302 302 302 303 303 303 303 303 303 303 303 303 304 304 304 304 304 304 304 304 303 302 302 302 302 302 301 301 301 300 300 299 298 298 298 297 296 295 295 294 293 293 292 292 292 291 291 290 290 290 290 290 289 289 289 289 289 290 290 289 289 289 288 288 288 288 288 288 288 288 288 287 287 288 288 288 287
298 298 297 298 298 298 299 300 301 302 302 303 303 303 303 303 303 303 303 303 303 303 303 303 303 303 304 304 302 302 302 302 302 302 301 301 300 299 298 298 297 297 297 296 295 294 293 293 292 292 292 291 291 291 290 290 289 289 290 290 290 289 289 289 289 289 289 288 288 288 288 287 287 287 288 288 288 288 288 288 288 288 288 288 288
297 297 298 298 298 298 298 299 301 302 302 302 302 303 302 302 303 303 303 303 303 303 303 303 303 303 303 303 303 302 301 302 302 302 301 301 300 300 299 298 297 297 297 296 295 293 292 292 292 292 291 291 291 291 290 290 290 290 289 289 289 290 290 290 290 290 289 288 288 288 288 287 288 288 288 288 288 288 288 288 288 288 288 288 288
296 297 298 298 299 299 298 299 300 301 302 302 302 301 301 302 302 302 302 302 302 302 302 302 302 302 302 302 302 302 302 302 302 302 301 300 299 299 299 298 297 297 296 295 294 293 292 292 292 291 291 291 291 290 290 290 290 290 289 289 289 289 289 289 290 289 288 288 288 288 288 288 288 288 288 288 288 288 288 288 288 288 288 288 288
296 297 299 299 299 299 299 299 299 301 301 301 301 301 301 301 301 301 302 302 302 302 302 302 302 302 302 302 302 302 302 302 302 301 300 299 298 298 297 297 296 296 295 293 293 292 292 292 291 291 291 291 290 290 290 289 289 289 289 289 289 289 289 289 289 289 289 288 288 288 288 288 288 288 288 288 288 288 288 288 288 288 288 288 288
295 297 299 300 300 299 299 299 299 300 301 300 300 300 300 301 301 301 301 301 301 301 301 301 301 301 301 301 302 302 302 302 302 301 300 298 297 297 296 296 295 294 293 292 292 292 292 292 291 291 290 290 290 289 289 289 289 289 288 289 289 288 289 289 289 289 289 289 289 288 288 288 288 288 288 288 288 288 288 288 288 288 288 288 288
295 296 298 299 299 299 299 299 299 299 300 299 299 299 298 299 300 300 300 299 299 299 299 299 299 299 299 300 300 300 301 302 302 301 299 297 296 295 295 294 293 293 292 292 292 292 291 291 291 290 290 290 289 289 289 289 289 288 288 288 288 288 289 289 289 289 289 289 289 288 288 288 288 288 288 288 288 288 288 288 288 288 288 288 288
294 296 297 297 298 298 298 298 298 298 298 298 298 297 297 297 298 298 298 298 298 298 298 297 297 297 298 298 298 299 299 300 301 300 298 295 295 294 293 292 292 292 292 292 291 291 291 291 290 290 290 289 289 289 289 289 288 288 288 287 287 288 289 289 289 289 289 289 289 289 288 288 288 288 288 288 288 289 288 288 288 288 288 288 288
294 296 297 297 297 298 297 297 297 297 296 296 296 296 296 296 296 296 296 297 297 297 297 297 296 297 297 297 297 298 298 299 300 299 296 294 294 293 292 291 291 291 291 291 291 291 291 290 290 290 289 289 289 289 289 289 288 288 287 287 287 288 289 289 289 289 289 289 289 289 289 288 288 288 288 288 288 288 288 288 288 288 288 288 288
293 296 296 296 296 296 296 296 296 295 295 295 295 295 295 295 295 295 295 295 295 296 296 295 295 296 297 298 298 299 299 299 298 296 294 293 293 292 291 291 291 291 291 291 291 290 290 290 289 289 289 289 289 289 289 288 288 288 286 286 286 287 288 288 289 289 289 289 289 289 289 289 288 288 288 288 288 288 288 288 288 288 288 288 288
293 295 296 295 295 295 295 295 294 294 294 294 294 294 294 294 294 295 295 295 294 295 295 294 294 295 295 296 297 297 296 295 294 293 292 292 292 292 292 292 292 291 291 290 290 290 289 289 289 289 289 289 289 289 289 288 288 287 286 284 285 285 286 288 289 289 289 289 289 289 288 288 288 288 288 288 288 288 288 288 288 288 288 288 288
293 295 294 294 294 295 295 294 294 294 294 294 294 294 294 294 294 294 294 294 294 294 294 294 293 293 293 292 293 293 292 292 291 291 291 291 291 292 292 292 291 291 291 290 290 289 289 289 289 289 289 289 289 289 288 288 288 287 285 284 284 285 286 287 289 290 289 288 289 289 288 288 288 288 288 288 288 288 288 288 288 288 288 288 288
293 294 294 294 294 294 294 294 294 294 294 293 293 293 293 293 293 293 294 294 293 293 293 292 292 292 291 290 290 291 291 290 290 290 290 291 291 291 292 291 291 290 290 289 289 289 289 289 289 289 289 289 288 288 288 287 287 285 284 284 284 285 286 287 289 289 288 288 288 288 288 288 288 288 287 287 287 287 288 288 288 288 288 288 288
293 294 294 294 294 294 294 294 294 293 293 292 292 292 292 292 292 293 293 293 292 291 291 291 290 290 289 289 289 290 290 290 290 290 291 291 291 291 291 291 290 290 289 289 289 289 289 289 289 288 288 288 288 287 287 286 286 285 284 283 284 284 286 287 288 287 287 287 287 287 288 287 287 287 287 287 287 287 287 288 288 288 288 288 289
294 294 294 293 294 294 293 293 293 292 291 291 290 291 291 291 291 291 291 291 291 290 290 290 289 289 289 289 290 291 291 291 291 291 291 291 291 291 291 290 290 289 289 289 289 289 289 288 288 288 288 288 288 287 286 285 285 285 284 283 283 284 285 287 287 286 286 286 287 286 286 286 286 286 287 287 287 287 287 288 288 288 288 289 289
294 294 294 293 293 293 293 292 292 291 290 290 290 290 290 290 290 290 290 290 290 289 289 289 289 289 289 290 290 291 291 291 291 291 291 291 291 291 290 290 289 289 289 288 288 288 288 288 288 288 288 288 287 286 285 285 285 285 284 283 283 284 285 286 286 286 286 286 286 286 286 286 286 286 287 287 287 287 287 288 288 288 289 289 289
294 294 294 293 293 293 292 292 292 291 290 290 290 290 290 290 290 290 290 289 289 289 289 289 290 290 290 290 291 291 291 291 291 291 291 291 291 290 290 289 289 288 288 288 287 287 288 288 288 288 288 288 287 285 285 285 286 285 284 283 283 284 285 286 286 286 286 286 286 287 286 286 286 286 287 287 287 287 288 288 288 289 289 289 289
294 294 293 293 293 292 292 292 292 291 290 290 290 290 290 290 290 289 289 289 289 290 290 290 291 291 291 291 291 291 291 291 291 291 291 290 290 290 289 288 288 288 287 287 287 287 287 288 288 288 288 287 286 285 285 286 286 285 284 283 284 285 285 286 286 286 286 286 286 286 286 286 286 286 287 287 287 287 288 288 288 289 289 289 289
294 293 293 292 292 292 292 292 292 292 291 291 290 290 291 291 290 290 290 290 290 290 290 290 290 290 290 290 291 292 291 291 291 290 290 290 289 289 288 288 287 287 287 287 287 287 288 288 288 288 288 287 286 285 285 286 286 285 284 283 284 285 285 286 286 287 287 287 287 287 286 286 286 286 287 287 287 287 288 288 288 289 289 289 289
293 293 292 292 292 292 292 292 292 292 292 291 291 291 291 291 291 291 291 291 291 291 291 290 290 290 290 291 291 291 290 290 290 290 289 289 289 288 288 287 287 287 287 287 287 287 288 288 288 288 288 287 286 285 285 285 286 286 285 284 284 285 286 286 287 287 287 288 288 288 288 287 287 287 287 287 288 288 288 288 288 289 289 289 289
293 293 292 292 292 292 292 292 292 292 292 292 292 292 291 291 291 291 291 291 291 290 290 289 289 289 290 290 290 290 289 289 289 289 289 288 288 288 287 287 287 287 287 287 287 287 287 288 288 288 288 287 286 286 286 285 285 286 285 284 284 284 285 286 287 287 288 288 289 289 289 288 287 287 287 288 288 288 288 288 289 289 289 289 290
293 292 292 292 292 291 291 291 291 291 291 291 291 291 291 291 290 290 289 289 289 289 288 288 288 289 289 289 289 289 289 289 288 288 288 287 287 287 287 287 287 287 286 286 287 287 287 287 288 288 288 287 286 286 286 285 285 286 286 285 284 284 285 286 287 287 288 289 289 289 289 289 288 287 287 288 288 288 288 289 289 289 289 290 290
293 292 292 292 292 291 291 290 290 290 290 289 290 290 289 289 289 288 288 288 288 288 288 288 287 287 287 288 288 288 288 287 287 287 286 286 286 286 286 286 286 286 286 286 286 287 287 287 287 287 288 287 286 285 285 286 285 285 285 285 285 284 284 285 286 287 288 289 289 289 289 289 288 288 288 288 288 288 288 289 289 289 289 290 290
292 292 292 292 291 290 290 290 290 289 289 289 289 288 288 288 288 288 288 287 287 287 287 287 287 287 287 287 287 287 286 286 286 286 286 285 285 285 285 285 285 285 285 286 286 286 287 287 287 287 287 287 286 286 285 286 286 286 285 285 285 285 285 285 286 287 288 289 289 289 289 289 288 288 288 288 288 289 289 289 289 289 289 290 290
292 291 291 291 290 290 289 289 289 288 288 288 288 287 287 287 287 287 287 287 287 287 287 287 287 286 286 286 286 286 286 286 286 285 285 284 284 284 283 284 284 284 284 285 285 286 286 287 287 287 286 286 286 285 285 285 285 286 286 285 285 285 285 285 285 286 288 289 289 289 289 289 289 288 288 288 288 288 289 289 289 289 289 290 290
Wind_Speed
16 18 20 19 18 19 19 19 18 17 16 16 16 15 14 14 12 11 11 10 9 7 6 5 5 3 2 1 1 1 1 2 2 3 3 3 3 2 3 3 1 1 2 2 2 2 2 3 4 4 4 5 6 7 7 8 9 10 12 12 12 11 9 10 10 8 6 5 5 5 7 8 8 9 10 10 10 10 9 8 8 8 9 9 8
12 14 16 17 18 19 19 20 19 17 16 16 16 16 15 14 13 12 11 10 9 8 6 4 3 2 1 1 2 3 3 4 4 4 4 4 4 3 4 4 4 4 3 1 1 0 1 2 2 2 2 3 4 5 6 6 6 7 9 9 11 11 11 10 10 8 7 5 4 4 6 7 7 8 10 10 9 9 9 8 9 9 10 10 9
11 12 14 15 17 17 17 18 18 17 17 17 17 16 15 14 13 12 11 9 8 7 6 3 2 1 1 2 4 5 6 6 5 5 6 6 6 6 6 6 6 6 6 4 4 4 3 3 3 2 2 2 2 4 4 4 4 6 7 8 10 12 11 10 8 7 7 6 4 3 4 6 6 7 9 10 10 9 9 8 9 10 11 11 11
10 11 12 13 13 14 14 15 15 15 16 16 17 17 16 14 13 12 11 8 7 6 6 5 4 3 2 4 5 6 8 7 7 8 10 10 9 8 8 9 9 9 9 8 7 7 7 6 6 5 4 4 3 4 4 4 4 5 6 8 9 11 11 9 7 7 7 6 4 4 3 4 5 7 8 8 9 10 10 10 10 11 13 14 14
9 10 11 11 12 12 12 12 12 12 13 15 17 17 16 15 13 12 11 9 7 6 6 6 7 6 6 6 7 9 8 8 7 9 12 15 14 12 11 11 11 11 11 11 10 10 10 9 8 8 8 7 7 6 6 6 6 6 7 7 8 9 8 8 7 7 6 6 5 4 4 3 3 6 7 6 6 7 9 11 12 14 17 17 17
7 9 10 11 11 11 11 12 11 11 12 15 17 18 17 16 14 13 12 9 7 7 7 8 8 8 9 9 9 9 9 10 10 10 12 14 14 14 14 14 13 13 12 13 13 13 14 13 11 11 11 11 11 10 10 9 9 8 8 7 8 8 7 7 6 6 6 6 6 5 4 3 2 3 6 7 6 6 8 8 9 13 17 18 18
7 8 9 10 10 11 13 13 13 14 15 16 18 18 17 16 14 12 10 8 7 6 7 7 7 8 9 10 10 10 10 11 12 11 11 12 12 13 13 14 15 16 16 15 13 13 14 15 14 13 13 13 14 14 13 13 12 10 10 9 9 8 7 5 5 5 6 6 5 4 4 3 2 1 5 8 6 5 8 8 6 8 13 17 17
8 8 9 9 10 11 12 12 13 15 16 17 17 16 15 14 12 9 8 8 7 5 5 6 7 8 9 9 9 8 8 8 9 10 10 10 10 9 10 11 13 14 15 14 12 12 13 14 14 14 14 15 16 16 15 15 15 14 13 12 11 10 7 5 4 4 5 5 4 4 3 2 1 2 4 5 3 4 8 10 8 8 11 14 13
9 8 8 9 10 10 10 11 12 14 15 16 15 14 13 12 10 9 9 8 7 6 7 7 8 8 8 8 8 7 6 6 7 7 7 7 7 8 8 9 10 11 12 12 11 11 11 11 13 14 15 15 16 16 16 16 17 17 16 14 13 12 9 7 6 5 4 4 3 3 2 2 1 2 2 3 3 5 8 9 9 9 12 13 10
9 8 8 9 11 11 11 12 13 13 14 14 14 13 13 12 11 11 10 9 8 7 8 8 8 7 6 6 5 5 4 4 4 5 5 6 6 6 6 7 7 8 9 10 10 10 10 12 14 14 14 15 14 13 15 17 18 19 19 17 15 14 12 10 7 6 5 3 3 2 1 1 0 1 2 3 4 5 6 6 8 9 11 13 10
8 8 8 8 9 10 11 11 12 12 13 13 13 13 13 12 11 11 10 8 7 7 7 6 6 5 4 4 3 3 2 1 1 1 2 3 4 5 5 5 5 5 6 7 8 8 8 11 12 11 12 12 10 9 12 15 16 18 20 19 17 16 14 11 9 7 5 3 2 1 1 1 1 2 2 3 4 4 5 6 7 8 9 10 11
6 7 7 8 8 9 10 10 11 11 12 13 12 12 12 11 11 10 9 8 7 7 7 6 6 6 6 6 6 6 6 6 5 4 4 3 3 4 4 5 5 5 5 5 6 5 5 7 9 10 10 11 9 7 9 11 14 17 18 18 17 16 13 11 9 7 5 3 2 2 2 2 2 3 2 4 5 6 7 7 7 8 9 10 11
7 7 7 7 7 8 9 10 10 10 10 10 10 10 10 10 10 10 9 9 9 10 11 10 10 10 10 11 10 9 9 8 7 6 5 5 5 5 5 5 5 5 6 6 6 5 4 6 9 11 11 11 9 7 7 8 11 14 16 17 18 16 13 11 9 6 5 3 3 3 4 3 3 4 5 8 8 7 8 8 8 9 9 9 11
10 9 8 8 7 7 8 8 9 9 9 9 9 11 12 12 12 12 12 13 13 14 14 13 13 12 11 10 10 9 8 7 6 6 5 5 5 5 5 5 5 5 6 7 6 6 5 6 9 10 11 10 9 7 7 7 8 11 14 17 17 14 11 9 6 4 4 3 3 4 6 6 6 7 9 11 10 8 8 10 10 10 11 13 15
11 11 10 9 9 9 9 10 10 10 10 11 12 13 14 14 13 13 13 13 13 13 12 12 11 10 9 8 8 8 7 6 6 6 6 6 5 5 6 6 6 6 5 6 6 7 6 7 8 8 9 8 7 6 6 5 6 11 15 16 14 11 8 7 5 4 3 4 5 6 7 7 7 8 10 11 10 10 10 12 12 12 12 14 15
14 13 12 11 10 9 10 11 11 11 11 12 13 12 12 12 12 13 12 12 12 11 11 10 9 8 8 8 8 8 7 7 6 6 7 7 6 5 5 6 6 6 5 5 5 5 5 5 5 6 6 6 6 5 4 3 7 12 15 13 11 8 6 5 4 4 5 5 6 6 7 7 8 9 10 9 9 9 9 10 11 10 10 12 12
15 14 13 12 11 10 9 8 8 9 9 10 11 11 11 11 12 12 12 12 11 10 9 8 7 7 6 6 7 7 7 6 6 6 7 8 7 6 6 6 6 6 5 5 4 4 3 3 4 5 6 6 5 4 1 4 9 11 11 10 8 6 4 4 4 5 6 6 6 7 8 9 9 9 9 9 8 7 7 8 8 8 10 12 12
7 7 8 8 7 6 5 4 4 5 6 8 9 10 11 11 12 12 11 11 10 9 8 7 6 5 4 4 4 4 4 4 4 6 7 7 7 7 6 6 5 5 4 4 4 4 4 4 5 6 6 5 5 3 3 5 7 8 7 6 5 4 4 4 5 6 6 7 7 8 9 9 9 9 9 9 9 8 8 9 10 10 12 12 13
1 1 2 3 5 6 8 8 10 11 11 11 11 10 10 10 10 10 9 8 8 8 7 6 5 4 3 2 2 2 2 2 3 5 5 5 6 7 6 5 4 3 3 3 3 4 5 4 4 4 4 3 3 4 5 6 6 5 4 3 2 3 3 3 4 5 5 6 7 8 8 9 10 10 10 11 11 11 11 11 11 12 13 14 13
7 8 8 7 6 7 9 11 11 12 12 12 11 10 10 9 9 8 7 6 6 5 4 4 3 2 1 0 1 1 1 1 2 3 4 4 4 5 5 4 2 1 1 2 4 5 5 5 5 4 4 5 5 5 5 5 4 3 2 1 2 2 2 3 4 5 6 7 8 9 9 10 11 11 10 11 12 12 12 11 11 12 13 14 14
12 13 13 12 11 10 11 13 12 11 11 11 11 11 10 9 8 7 7 6 5 5 4 3 3 2 2 1 1 1 1 2 3 3 3 3 2 2 3 2 1 0 2 4 5 6 7 8 7 6 5 5 4 3 2 1 1 1 1 1 1 2 3 4 5 6 7 8 9 9 9 10 10 10 10 10 11 11 11 11 12 12 12 14 16
14 14 13 13 13 14 14 15 15 14 12 13 13 13 12 11 10 9 9 8 7 6 5 4 4 3 3 3 3 2 2 3 3 4 4 3 2 1 0 1 1 2 4 6 7 8 9 9 9 7 4 3 1 0 1 2 2 3 2 2 3 3 3 4 5 6 6 7 8 9 9 9 9 10 10 10 10 10 11 12 12 13 14 15 18
15 15 14 14 14 14 16 18 19 17 15 15 16 15 14 14 14 13 13 12 10 9 8 7 6 6 5 5 5 5 4 4 5 5 5 5 4 4 3 3 3 4 6 8 9 9 9 9 7 5 3 1 0 0 1 2 2 2 3 3 4 5 5 5 6 6 7 7 8 9 9 9 10 10 10 10 10 11 12 13 14 15 17 18 18
17 16 16 16 16 16 16 18 21 21 19 18 19 18 17 17 17 16 15 14 12 11 10 9 9 8 8 7 7 6 6 7 7 7 7 6 6 7 6 5 6 7 8 9 10 10 9 8 6 4 3 2 1 1 2 2 3 3 3 4 5 6 5 5 6 6 7 8 8 9 9 9 10 10 11 12 13 14 15 15 15 15 16 17 17
18 17 17 16 16 16 17 18 21 23 22 22 21 21 21 20 19 17 16 15 13 12 11 11 11 9 8 8 8 8 8 8 9 9 8 7 7 8 7 7 7 8 9 10 11 10 8 7 6 5 4 3 3 3 3 4 4 4 5 6 6 6 5 5 6 7 7 8 8 9 10 10 10 11 12 13 14 14 15 14 14 13 14 15 15
20 19 18 17 16 16 16 17 19 23 25 25 24 24 23 21 20 19 18 17 15 12 11 12 11 9 9 9 10 10 10 10 10 9 8 8 8 8 8 8 9 9 10 11 11 9 8 7 7 6 5 4 3 3 4 4 5 6 8 8 7 6 6 6 6 7 8 8 9 9 10 10 11 11 12 12 12 12 12 12 13 13 13 14 15
21 21 20 18 17 16 15 16 18 21 24 25 24 23 21 20 20 19 18 18 16 14 13 12 11 10 10 11 12 12 11 11 11 10 9 9 9 10 10 10 10 11 11 12 11 10 10 9 7 6 4 3 3 4 5 5 6 6 7 7 6 6 7 7 7 7 8 8 9 9 10 10 11 11 11 11 12 12 11 12 13 13 13 14 15
21 21 22 20 18 17 16 15 16 19 22 22 22 21 20 19 19 19 18 16 15 13 13 12 11 11 11 11 13 13 12 13 13 13 12 12 12 13 13 13 13 13 13 13 13 12 11 10 8 6 5 4 4 4 5 5 6 6 6 6 5 6 8 9 8 8 8 8 9 9 10 10 10 11 11 11 12 12 12 12 13 14 14 14 15
22 22 22 21 20 19 18 16 16 17 18 18 17 17 16 16 16 16 15 14 12 12 11 12 13 13 12 11 12 12 13 15 16 14 13 13 13 14 15 15 15 14 13 13 13 14 12 9 8 6 5 4 4 4 4 5 5 6 6 6 5 6 7 8 8 8 8 8 9 10 10 11 11 11 12 12 12 13 12 13 14 15 15 15 16
21 23 22 21 21 21 20 18 16 15 15 14 13 13 14 14 14 14 13 12 13 13 13 13 14 14 14 15 14 13 14 16 15 13 13 14 15 14 14 14 14 14 13 13 13 13 12 9 7 5 4 4 4 4 4 5 5 5 6 6 5 6 7 8 8 8 8 8 9 10 10 11 12 12 12 12 13 13 13 13 13 14 14 15 16
18 20 20 20 20 21 20 19 16 15 15 14 13 14 14 14 15 15 14 14 15 16 17 17 17 17 17 18 17 17 17 16 15 13 13 16 17 16 14 14 14 13 14 14 13 12 10 8 7 5 4 4 4 4 4 5 5 6 6 6 6 6 7 8 8 8 8 9 10 10 10 11 12 12 12 13 13 13 13 13 13 13 14 15 16
15 16 18 19 18 17 16 15 14 14 14 13 13 12 11 12 14 15 16 17 17 18 18 19 20 20 20 20 20 20 19 18 16 14 14 17 19 18 16 15 15 15 15 14 12 10 8 7 7 5 4 4 4 3 4 5 5 6 6 7 7 7 8 8 8 8 8 10 11 11 11 11 12 12 13 13 13 13 13 13 13 13 14 15 16
14 15 15 15 13 10 9 9 9 9 9 9 9 10 10 9 10 11 13 16 18 18 20 21 21 21 22 22 22 23 21 19 17 15 16 20 21 19 17 17 16 16 15 13 11 10 8 7 7 6 5 4 3 3 4 5 5 6 6 7 7 7 8 9 8 8 9 10 11 11 12 12 12 13 13 12 13 14 14 13 13 13 14 15 16
15 13 11 9 7 5 4 5 6 6 7 8 8 9 10 10 9 9 9 11 13 14 16 18 19 20 20 21 23 24 23 20 18 16 18 22 23 21 21 21 20 18 15 12 11 11 9 8 7 6 5 4 4 3 4 4 5 6 6 7 8 8 8 9 9 9 10 10 10 11 12 12 12 13 13 13 14 14 14 13 13 13 14 15 15
15 10 7 6 5 4 3 4 5 6 7 7 8 9 10 9 9 9 8 8 8 9 9 12 15 18 18 19 21 22 21 19 16 17 21 25 25 24 25 23 20 17 14 11 11 10 8 8 8 6 5 4 4 3 4 4 5 6 7 8 8 9 9 9 9 9 10 10 10 11 12 12 12 13 14 14 14 14 14 13 13 13 14 15 15
13 7 5 5 5 4 4 5 6 7 7 8 9 10 9 8 8 9 9 8 9 9 8 9 12 14 15 15 16 16 16 17 18 22 26 27 27 27 25 20 16 15 14 12 11 10 8 8 8 6 5 4 3 3 3 5 6 7 8 10 10 10 11 10 10 11 11 11 11 11 11 12 13 13 13 14 14 14 14 13 13 14 14 15 16
11 6 4 4 4 3 4 5 7 8 9 10 11 11 9 9 9 9 9 9 8 8 8 8 8 8 9 10 11 13 15 18 22 25 27 27 25 25 24 21 17 15 14 12 11 10 9 8 7 6 5 3 3 3 4 5 6 7 10 12 12 12 13 13 14 15 14 12 12 12 12 12 13 13 13 14 15 15 14 14 14 15 15 16 17
9 5 4 2 2 1 3 4 6 8 9 10 10 10 9 9 9 9 9 9 8 8 8 8 7 6 7 9 13 18 22 24 27 27 27 27 25 23 22 21 18 15 14 13 12 10 9 8 7 5 4 3 3 4 4 6 7 9 12 13 13 13 14 13 14 16 15 13 13 13 13 13 13 13 13 14 15 15 15 15 15 16 16 16 16
6 5 3 0 0 1 2 4 6 8 9 9 10 10 10 10 9 9 9 9 8 8 8 8 7 8 10 13 20 26 28 28 30 29 26 24 22 19 19 18 17 16 15 14 11 10 9 8 6 5 3 3 3 4 5 7 9 11 14 14 13 13 14 14 14 14 13 12 13 14 14 14 13 13 13 14 15 16 17 17 17 17 17 16 16
6 5 2 2 2 2 3 5 7 8 8 9 10 10 9 9 8 8 8 8 8 9 10 10 9 11 15 20 26 31 29 27 28 28 24 21 19 18 17 17 16 16 15 13 11 10 8 7 6 4 3 3 4 6 8 10 11 12 14 14 14 14 16 16 14 11 11 11 12 13 13 14 14 13 13 14 15 17 18 17 17 16 16 16 15
5 5 3 3 3 1 4 5 5 5 6 7 7 7 6 6 6 7 9 11 12 13 14 14 14 16 20 23 26 29 30 28 26 25 23 21 20 18 17 16 15 14 13 11 10 9 8 6 5 4 3 3 5 7 10 12 13 14 15 15 15 16 17 16 13 10 11 12 12 13 14 14 14 14 14 15 16 17 17 17 16 16 15 15 15
6 4 3 3 2 3 3 2 4 4 3 1 1 3 5 7 10 12 14 16 17 17 18 19 19 19 22 23 23 25 26 25 23 22 22 21 20 18 16 15 13 12 11 10 9 8 7 6 4 3 3 4 6 9 11 13 14 15 16 16 16 16 16 15 13 12 13 14 15 16 17 17 16 15 15 16 16 16 16 17 16 15 14 14 14
5 4 3 1 1 1 2 5 7 6 5 7 9 10 12 14 16 17 18 19 19 19 21 22 20 19 18 18 19 21 23 23 22 22 22 20 18 16 15 13 12 11 10 10 9 8 6 5 3 2 3 5 7 10 11 12 14 15 16 16 15 15 15 14 14 15 16 16 18 19 19 19 17 16 16 16 16 15 16 16 16 15 14 13 13
6 5 3 2 2 4 6 8 9 9 10 13 15 16 17 18 19 20 20 19 18 20 22 21 20 18 18 18 19 21 22 22 22 21 19 17 16 15 13 12 11 10 10 9 8 7 6 4 2 2 4 6 8 10 11 12 13 15 16 15 16 16 15 15 16 17 17 17 19 20 20 19 18 16 16 16 16 15 15 16 16 14 13 12 12
6 5 4 4 6 7 8 8 9 10 11 13 15 17 18 19 19 20 21 20 19 20 21 19 18 18 19 20 20 21 21 22 21 20 18 16 15 14 12 11 10 10 9 8 7 6 5 3 2 2 4 6 8 10 11 11 13 14 15 15 16 16 16 17 18 18 18 17 18 19 19 20 19 17 16 16 15 14 14 15 15 14 13 12 12
7 7 7 8 9 9 8 8 9 9 11 13 13 14 16 17 17 18 19 18 18 18 17 16 16 17 18 19 20 21 22 22 20 19 17 15 14 13 11 10 9 8 6 5 5 5 4 2 1 2 4 5 7 9 10 11 11 13 14 15 15 16 17 17 18 19 18 17 17 18 19 20 20 18 16 15 14 14 14 15 14 13 12 12 11
8 9 10 11 10 9 8 8 9 9 11 12 13 13 14 14 14 15 16 16 16 16 15 15 16 16 17 19 20 21 21 20 19 17 16 14 12 11 10 8 7 5 4 4 5 4 3 2 1 3 4 5 7 8 10 11 10 11 13 15 15 16 17 17 18 19 18 16 16 17 18 20 19 17 14 14 14 14 14 14 14 13 12 11 11
8 10 11 11 10 9 7 7 7 8 9 10 11 13 13 14 14 13 13 13 13 13 13 14 14 15 17 20 21 20 20 18 16 15 13 11 10 9 8 6 5 4 3 4 4 3 2 0 2 4 5 5 7 8 10 11 11 10 11 13 15 16 16 17 18 19 18 16 15 16 17 19 18 16 13 13 13 13 13 13 13 13 13 12 11
8 9 10 10 10 10 9 9 10 10 11 11 12 12 13 13 13 12 11 11 11 11 11 12 12 12 14 19 20 19 16 14 12 10 9 8 8 7 6 5 4 4 4 4 3 2 1 1 3 5 5 6 7 8 9 10 11 11 12 13 13 15 16 16 17 18 18 15 14 15 17 18 17 15 13 13 13 13 13 13 13 13 12 12 12
9 10 10 11 12 12 13 13 13 12 12 13 13 13 12 11 10 10 10 11 10 10 11 11 11 12 15 18 18 16 12 10 9 8 8 7 6 5 5 4 4 4 3 2 2 1 2 3 5 6 5 6 7 8 9 10 12 12 12 12 13 14 15 16 16 17 17 15 14 15 17 17 16 14 12 12 12 13 13 13 13 12 12 12 12
11 12 12 12 12 13 13 13 13 13 13 13 13 13 12 10 10 10 10 11 10 10 10 11 11 12 14 15 14 12 10 9 8 7 6 5 4 3 3 4 4 4 2 1 1 2 3 4 5 6 5 6 7 9 10 11 12 11 12 12 12 13 14 15 15 16 16 14 13 15 16 16 16 15 13 12 12 12 13 13 13 12 12 12 12
Wind_Direction
207 207 206 206 209 211 210 207 203 205 207 204 201 196 188 183 177 173 173 171 169 174 177 170 163 166 169 186 267 322 3 23 29 23 26 29 29 17 0 3 28 56 62 91 113 117 127 129 125 120 109 106 112 113 113 106 95 94 94 93 101 110 111 110 113 120 119 108 105 93 78 73 66 61 60 57 54 53 50 47 45 44 42 37 22
203 204 204 205 208 211 211 208 204 206 209 206 203 201 196 191 187 185 186 183 178 184 190 186 175 176 197 261 296 315 329 339 347 348 348 344 340 339 328 318 306 302 307 294 243 194 161 165 157 143 129 122 125 128 128 123 110 104 102 103 106 108 109 110 113 123 132 130 123 103 81 75 65 53 48 46 48 51 49 45 43 39 36 36 26
201 198 199 202 207 208 210 211 208 207 207 206 206 206 203 200 195 195 197 195 193 197 201 208 217 199 226 294 307 330 342 341 334 328 327 324 320 318 311 304 297 290 286 279 268 273 261 229 221 219 199 178 169 162 154 145 137 127 117 113 114 113 112 112 112 121 135 138 137 125 91 74 64 49 40 36 35 38 37 34 32 28 22 23 21
201 196 196 200 203 205 210 214 212 209 206 205 209 210 208 205 202 199 201 203 203 207 209 217 228 234 275 302 304 313 323 324 316 307 306 308 308 303 296 297 296 292 290 286 273 268 263 250 248 254 245 226 215 203 193 183 169 157 143 131 127 123 118 114 111 118 131 135 135 134 111 82 63 47 38 30 24 23 22 18 16 16 11 10 10
195 198 199 199 198 201 207 205 203 207 210 209 212 214 210 207 204 200 203 211 212 211 213 220 230 236 246 269 283 291 299 302 301 298 297 299 299 292 287 289 291 290 291 292 283 271 263 254 252 257 252 241 234 231 224 214 203 191 176 159 151 142 128 121 116 115 123 131 137 132 116 105 68 38 31 28 21 15 10 5 3 3 2 2 2
181 191 198 199 197 199 198 193 195 209 221 219 217 214 210 206 204 203 209 218 220 217 219 224 230 230 229 239 258 275 286 290 296 301 299 295 290 283 280 280 282 286 294 297 290 277 267 259 255 255 252 248 248 249 244 233 223 213 202 188 178 167 155 144 135 128 128 130 135 138 131 125 99 35 21 19 20 15 7 359 352 352 354 355 355
168 179 188 192 194 196 195 196 202 210 217 220 214 208 203 200 199 202 209 216 215 214 217 221 226 229 232 239 251 268 277 281 291 299 298 294 288 281 277 275 277 285 294 297 293 282 272 265 263 263 260 253 252 255 251 240 233 228 223 217 204 190 177 166 157 147 143 139 137 143 144 128 107 41 10 13 16 13 7 0 345 341 345 346 347
166 167 172 176 182 189 191 194 198 201 205 208 203 195 191 189 189 193 199 202 204 212 224 235 240 239 240 245 252 263 272 278 285 288 288 291 292 289 283 277 277 282 286 289 289 283 275 271 269 269 269 263 256 256 253 245 241 236 230 225 216 205 194 183 186 173 154 151 146 143 149 139 94 22 9 14 11 353 356 353 340 333 336 338 338
170 164 161 160 162 168 170 169 172 180 187 190 188 186 186 186 189 195 197 199 206 221 233 238 238 236 237 241 246 254 268 278 278 277 280 284 285 284 284 281 279 279 281 283 287 288 284 280 278 277 279 275 265 259 257 253 250 244 238 233 221 212 206 197 196 196 187 180 164 154 166 161 93 9 357 3 350 337 341 343 336 330 331 332 328
175 170 162 154 152 154 157 157 159 166 177 182 183 188 195 197 199 200 200 204 213 222 226 225 224 225 226 226 229 236 249 261 260 262 270 273 274 278 282 282 279 277 281 283 288 295 291 279 276 277 279 281 276 267 260 257 253 249 248 247 237 224 214 204 201 208 217 216 184 173 221 217 75 350 325 322 328 327 329 332 329 328 330 330 327
176 181 180 175 172 172 172 171 169 173 184 191 191 195 201 201 196 194 195 197 200 197 195 198 198 196 189 179 178 179 177 177 194 272 289 283 288 295 294 292 288 281 282 283 288 299 293 277 276 280 284 294 300 281 263 259 255 249 247 248 245 235 223 214 215 218 216 210 176 175 254 246 252 297 307 306 313 318 320 320 322 327 330 325 322
167 178 186 188 188 186 184 180 178 180 187 193 192 191 192 189 184 184 184 183 182 173 163 161 158 147 135 129 123 117 110 99 88 74 53 33 2 336 318 306 301 293 288 290 294 305 304 291 295 300 304 313 317 293 270 266 258 247 240 237 233 227 221 221 225 225 222 220 217 234 260 256 258 275 288 305 312 313 313 315 316 321 320 312 310
134 142 153 161 168 174 177 177 178 182 186 188 183 172 167 166 166 165 162 159 154 144 136 133 128 122 117 113 108 103 96 87 76 64 45 32 18 0 343 322 305 294 291 296 302 307 306 301 306 312 315 319 321 309 292 278 258 243 232 224 216 212 216 222 225 234 244 250 249 257 267 266 261 267 286 305 315 314 311 313 313 311 308 303 301
105 109 118 129 138 148 157 163 168 173 174 169 157 146 142 142 143 144 141 139 133 126 122 119 115 113 110 106 99 91 85 76 62 50 37 23 10 356 346 336 318 298 289 291 294 296 299 299 303 311 315 316 317 314 306 288 258 232 215 206 202 203 210 218 221 233 249 261 261 257 263 264 261 275 292 303 308 305 300 303 305 303 300 297 298
89 89 91 100 113 125 133 139 140 140 142 139 134 132 132 132 133 134 133 131 127 123 120 116 113 111 107 99 92 83 76 71 62 54 44 30 17 0 347 340 332 320 304 296 292 292 297 300 303 310 315 316 316 315 309 286 240 210 196 191 192 196 201 207 214 225 244 262 264 259 262 268 272 285 295 298 296 293 294 298 299 298 297 297 297
91 88 83 84 94 109 121 128 131 132 133 134 133 133 134 134 136 137 136 133 131 127 124 120 115 112 107 98 90 83 80 80 76 64 51 41 33 19 3 354 350 346 336 325 317 313 315 318 321 332 342 342 336 329 310 246 201 188 184 183 186 190 196 206 224 248 266 271 273 275 280 287 291 292 294 294 290 291 295 295 296 295 294 295 294
100 99 99 101 102 104 109 112 116 125 133 140 142 143 144 145 144 143 141 138 136 134 129 124 120 114 109 99 87 80 79 79 70 53 42 37 37 36 25 12 5 4 0 354 352 352 356 14 24 24 23 18 10 9 26 183 181 180 182 184 182 186 204 233 254 270 280 282 287 291 293 297 299 299 302 302 299 300 296 291 296 300 296 296 295
113 112 122 132 136 141 152 158 158 163 169 167 160 156 154 152 150 151 150 146 144 142 135 130 125 116 104 88 74 68 65 60 48 36 30 30 33 36 33 22 11 10 16 22 32 47 56 57 52 44 40 36 36 62 121 163 175 178 180 182 186 207 234 258 273 283 292 297 300 301 301 304 306 308 309 306 304 305 296 290 299 301 295 293 295
314 286 228 215 205 195 193 191 187 188 190 184 173 165 162 159 156 154 153 150 147 144 137 130 124 115 101 69 45 38 36 34 26 24 23 25 29 31 32 30 17 15 37 56 76 88 83 69 62 63 71 79 96 126 145 162 173 174 169 164 182 225 251 271 289 299 303 305 304 304 305 308 310 309 305 300 299 299 291 285 289 291 288 289 292
312 304 295 282 253 216 197 187 184 184 185 184 180 175 173 171 167 162 158 155 150 143 140 140 136 138 149 258 317 327 347 357 359 3 7 15 26 31 33 33 21 26 94 117 121 121 117 110 112 120 129 136 148 156 158 165 175 179 178 162 172 210 253 282 291 295 298 299 302 304 304 305 304 300 296 293 292 290 284 278 278 279 282 285 287
306 297 290 280 268 247 217 201 198 199 197 197 195 189 184 183 183 182 183 181 176 174 175 179 184 192 208 227 251 271 286 317 328 334 338 346 7 31 37 38 32 108 167 163 147 135 133 133 135 140 143 143 145 151 159 183 244 271 274 253 229 248 273 287 292 296 301 303 304 305 302 298 295 290 286 285 283 280 278 277 274 272 274 280 284
318 306 293 279 270 260 241 223 213 209 208 209 203 196 195 198 199 200 199 193 188 187 188 189 191 196 206 214 222 236 251 276 296 301 302 301 292 263 215 185 180 184 188 179 163 151 146 144 143 143 142 137 124 72 323 310 314 322 328 327 316 311 311 311 310 311 311 308 304 299 292 289 289 288 287 286 284 282 282 282 280 276 275 277 279
326 318 306 292 279 268 254 238 225 220 221 220 213 208 209 208 203 200 198 193 190 189 188 189 195 202 210 216 223 235 248 263 276 277 275 273 260 241 224 212 205 200 197 189 178 168 160 154 147 143 146 160 121 8 349 344 352 0 2 346 329 329 331 326 320 314 307 301 297 293 291 292 293 293 293 294 293 292 291 290 289 286 283 280 277
323 320 314 305 293 281 268 251 237 233 234 228 218 215 215 211 204 201 199 196 193 191 192 195 201 208 216 224 232 243 257 267 273 273 269 261 247 233 220 208 206 206 202 191 179 169 161 156 152 149 151 139 104 76 48 34 34 28 4 340 333 334 335 329 320 314 307 300 298 297 297 297 298 298 300 301 299 297 296 294 292 288 285 283 279
316 315 313 310 303 295 285 267 251 243 237 228 220 218 217 212 207 204 202 202 201 199 201 206 210 214 219 228 241 253 263 270 273 271 264 252 238 227 216 203 199 201 195 185 176 169 163 157 151 147 139 119 92 72 55 41 28 4 344 341 348 353 349 339 328 319 311 305 303 304 303 303 302 302 303 302 299 297 297 296 294 291 288 286 284
309 308 307 307 305 303 296 281 264 249 238 229 225 224 221 217 213 209 206 206 207 208 210 213 216 219 224 235 247 255 260 265 265 261 252 239 226 219 209 197 193 190 184 176 170 163 158 155 151 146 135 120 98 68 43 22 4 351 347 353 4 4 352 342 334 326 320 315 310 308 308 308 306 305 305 304 300 299 299 298 297 296 294 293 292
305 303 301 300 299 299 298 291 274 255 241 233 229 227 224 221 218 214 210 210 211 213 216 218 220 226 234 243 250 253 256 256 253 243 232 224 215 208 199 191 184 179 172 167 163 159 156 153 151 146 132 111 71 43 31 20 11 7 4 6 8 5 358 355 350 337 326 319 315 311 310 310 309 308 309 306 301 300 300 298 296 296 297 298 295
301 298 295 295 293 289 290 291 279 259 244 234 228 224 222 221 221 219 216 215 215 216 220 225 230 236 242 247 251 253 250 247 245 239 231 222 212 202 195 189 184 180 175 169 162 158 154 148 140 129 115 95 70 53 45 35 26 21 15 10 8 8 4 357 350 339 327 319 316 312 310 309 308 307 306 304 302 303 302 299 296 296 297 297 294
299 294 291 290 288 284 283 285 278 259 242 231 227 225 223 222 223 224 222 221 224 227 231 236 242 247 250 251 251 249 248 253 255 250 238 228 220 212 203 196 189 184 181 176 166 156 148 140 133 125 112 95 79 64 48 36 28 21 16 14 11 8 1 350 341 335 328 321 315 310 308 307 305 305 304 302 301 303 302 299 297 297 297 294 290
298 292 288 287 285 282 278 276 271 258 243 236 237 239 239 237 235 236 236 236 239 244 246 249 252 255 257 258 256 253 256 264 265 253 235 225 220 216 210 203 195 185 179 175 168 156 145 137 129 121 109 91 76 61 44 33 25 15 10 8 3 358 357 352 343 335 328 322 316 310 307 305 304 304 303 301 302 304 305 302 300 298 296 291 289
296 289 285 284 282 280 277 273 264 253 245 243 241 242 245 247 248 248 249 249 250 252 253 254 255 255 256 258 259 259 260 262 259 247 231 218 210 205 201 197 191 183 177 171 162 151 145 138 128 118 106 90 75 62 45 33 23 10 2 358 353 348 347 345 339 332 329 328 325 318 312 308 305 303 302 301 302 304 304 303 300 296 292 289 287
292 284 282 282 280 278 274 266 254 242 239 239 238 239 245 252 254 255 254 252 252 252 252 253 254 254 254 255 257 258 258 254 249 243 229 213 204 198 193 188 182 177 175 169 156 145 142 138 129 121 108 96 86 71 53 36 21 8 357 351 347 341 338 339 337 332 332 333 330 325 319 313 307 303 302 300 299 299 300 301 299 295 292 288 286
293 282 279 281 279 270 259 250 241 235 237 241 245 249 251 252 256 262 264 263 261 259 257 257 255 254 254 254 253 255 255 252 248 242 223 206 197 189 183 178 173 168 168 164 152 142 140 136 129 122 114 107 98 74 53 34 15 4 355 348 343 337 335 339 340 337 335 335 331 327 323 317 310 305 302 299 297 297 298 298 297 295 292 290 289
297 281 271 271 266 250 243 245 248 255 260 259 260 262 260 257 257 260 264 267 267 264 262 261 260 259 258 253 250 250 249 245 241 231 211 198 191 183 173 166 164 165 167 163 152 144 141 135 128 123 120 114 98 69 49 27 7 359 352 346 344 342 341 343 345 341 336 333 330 329 327 322 315 309 305 302 301 300 300 300 300 299 296 294 293
300 279 259 264 263 259 273 275 274 279 277 271 267 263 259 256 253 251 253 259 264 266 266 267 267 265 260 253 249 246 241 235 229 215 199 189 182 174 164 158 158 163 164 158 149 144 139 134 129 128 126 114 89 60 38 14 359 355 351 346 346 348 349 348 343 338 335 332 330 331 329 323 317 312 308 306 305 305 305 304 304 302 299 297 295
298 270 252 278 282 282 294 297 294 294 288 281 277 271 263 256 250 248 249 253 257 263 266 267 270 268 262 253 246 235 225 217 207 195 187 181 174 166 159 155 155 157 153 147 143 138 133 131 132 129 123 107 78 49 23 2 352 352 354 354 354 352 350 345 340 341 342 339 334 330 327 324 321 317 312 309 308 307 307 306 304 302 300 299 297
293 260 242 268 273 280 300 304 302 300 293 288 284 277 268 260 251 247 247 246 247 253 254 252 256 256 245 230 215 202 195 193 187 179 173 170 168 166 164 161 157 151 145 142 141 137 134 135 133 123 115 99 61 31 7 353 348 350 356 0 1 358 353 351 351 353 352 343 332 326 322 320 321 320 315 311 310 310 311 311 309 306 305 303 300
280 237 221 248 257 294 326 321 311 303 296 292 285 275 266 261 252 244 242 239 235 234 232 226 217 205 193 182 176 173 169 165 161 159 159 162 166 169 168 163 156 148 143 142 142 140 137 137 131 119 108 85 43 13 354 349 350 352 357 1 1 358 356 355 355 356 352 340 331 327 322 319 321 323 319 315 313 312 312 312 311 308 306 304 301
251 205 191 219 72 51 3 330 312 300 290 285 279 270 262 255 243 231 226 222 217 209 203 195 184 178 170 160 158 157 152 148 149 152 156 162 167 167 163 158 153 148 145 143 142 140 138 135 129 117 100 64 26 4 355 354 354 356 1 2 358 356 357 356 352 349 342 331 327 327 325 324 325 325 322 318 315 313 312 310 308 306 303 302 301
220 182 146 101 103 65 346 318 305 294 283 277 274 266 256 244 232 220 208 195 183 177 173 165 157 160 159 154 152 151 146 144 150 155 157 161 163 159 154 152 150 147 145 142 141 140 137 133 125 110 82 40 14 4 1 1 359 359 1 1 358 358 358 356 350 341 329 324 325 327 327 329 329 326 323 321 319 315 311 308 307 306 303 303 304
193 172 149 151 163 291 318 315 312 304 289 277 268 257 244 226 204 185 171 161 153 149 147 142 139 145 149 150 151 152 150 150 154 156 155 154 151 148 147 147 146 144 142 140 140 140 137 128 117 97 61 25 10 6 4 3 2 1 0 0 0 360 357 353 346 336 331 331 332 332 332 334 333 328 324 324 322 318 313 309 308 309 308 309 310
173 164 164 183 225 289 315 356 15 357 334 303 185 169 160 153 150 147 142 138 136 132 130 128 130 137 144 148 152 155 155 153 152 150 146 144 142 141 142 142 140 139 139 139 140 139 131 120 107 81 44 22 12 8 6 4 3 1 359 358 359 358 355 350 344 340 339 340 340 341 342 342 338 332 327 326 325 321 316 312 313 314 314 316 317
147 143 152 186 307 356 91 85 64 51 65 90 102 113 121 125 127 127 124 124 125 125 125 126 129 135 141 149 156 157 153 149 146 143 141 140 140 139 138 138 138 140 145 147 147 142 129 116 103 68 36 19 11 9 7 5 3 1 358 357 358 358 355 351 347 344 342 342 343 347 348 347 341 334 330 329 328 324 319 318 318 319 321 322 322
127 126 130 120 99 110 115 105 89 82 90 97 100 107 113 114 116 119 119 119 121 124 126 128 131 136 142 149 154 153 148 144 144 143 142 141 140 137 136 136 138 142 146 149 149 144 131 115 93 53 30 12 6 7 7 5 4 2 360 358 359 358 356 354 351 347 344 342 344 346 348 346 343 337 332 332 331 327 323 323 322 322 323 325 325
124 121 117 119 124 124 121 114 105 99 101 103 103 106 110 111 114 118 121 121 123 126 128 130 134 139 143 145 147 147 146 145 144 143 142 140 138 136 135 136 137 139 141 144 145 140 130 114 84 40 17 6 4 7 8 7 5 3 2 2 1 359 357 356 353 349 346 344 344 345 345 345 344 341 336 334 332 329 327 327 326 324 325 327 328
106 100 100 110 119 123 123 122 118 111 109 109 108 107 109 113 116 121 126 129 131 132 133 136 138 139 139 141 143 144 144 143 142 141 140 138 137 137 138 138 137 133 131 135 140 140 135 125 83 18 8 5 5 7 10 7 3 2 3 4 3 1 359 357 355 353 349 346 345 345 346 347 347 343 338 335 332 329 330 330 328 326 327 329 331
83 80 88 100 108 113 118 125 127 122 117 115 115 114 114 117 120 123 128 133 135 136 135 134 133 133 134 137 140 141 140 139 138 137 137 137 137 139 140 139 133 125 122 137 148 148 145 134 30 0 3 6 5 8 10 6 360 358 2 4 3 2 0 358 357 355 352 348 347 347 347 348 348 342 334 332 333 331 330 331 330 329 331 334 336
79 78 86 94 100 102 103 107 114 114 111 112 115 116 117 119 119 117 117 120 122 124 122 119 118 122 128 133 135 136 135 133 131 128 127 127 131 136 137 135 134 141 156 163 158 153 153 177 343 350 357 3 4 5 6 3 357 355 358 359 360 360 359 358 358 357 354 351 351 351 350 352 350 341 330 331 334 332 331 333 333 334 336 340 343
88 86 88 92 97 100 103 108 114 115 112 112 112 111 111 112 109 105 102 102 102 103 106 107 107 113 123 128 130 130 127 122 116 113 112 113 120 130 136 138 147 163 175 175 171 176 229 305 332 342 350 357 359 359 359 357 356 355 354 353 354 356 358 359 359 358 356 355 355 356 357 359 355 343 332 334 336 335 334 337 337 337 341 345 348
94 93 95 96 100 104 106 109 113 114 113 113 112 108 104 100 95 94 97 99 98 99 103 107 109 115 123 127 126 123 116 109 105 105 105 104 112 130 145 151 155 164 176 183 194 240 293 319 331 339 347 351 352 352 351 350 351 351 350 348 347 350 354 358 359 359 358 358 359 1 3 3 359 350 341 341 343 342 340 341 342 343 346 349 351
97 97 97 96 98 101 102 103 105 109 111 113 113 109 104 99 97 99 101 100 101 103 104 105 109 115 120 121 119 113 108 105 103 100 98 95 98 126 163 172 173 178 191 218 266 301 317 327 338 348 354 353 350 348 346 345 345 344 343 343 344 346 350 354 359 1 0 359 2 6 8 7 5 2 356 352 351 349 346 347 349 350 352 354 355